Roanoke, VA

11:21 PM EST on February 24, 2018 (GMT -0500)
Roanoke Regional-Woodrum

Weather History for KROA - February, 2012

Change the Weather History Date:

Wednesday, February 15, 2012

  Actual Average Record
Temperature  
Mean Temperature 49 °F 39 °F  
Max Temperature 60 °F 49 °F 79 °F (1989)
Min Temperature 38 °F 30 °F 7 °F (2015)
Degree Days  
Heating Degree Days 16 26  
Month to date heating degree days 344 401  
Since 1 July heating degree days 2428 2893  
Cooling Degree Days 0 0  
Month to date cooling degree days 0 0  
Year to date cooling degree days 0 0  
Moisture  
Dew Point 29 °F    
Average Humidity 50    
Maximum Humidity 71    
Minimum Humidity 28    
Precipitation  
Precipitation 0.00 in 0.10 in 1.58 in (1922)
Month to date precipitation 0.49 1.55  
Year to date precipitation 2.18 4.47  
Snow  
Snow 0.00 in - - ()
Month to date snowfall T  
Since 1 July snowfall 0.4  
Snow Depth 0.00 in    
Sea Level Pressure  
Sea Level Pressure 30.22 in    
Wind  
Wind Speed 6 mph (SSW)    
Max Wind Speed 24 mph    
Max Gust Speed 31 mph    
Visibility 10 miles    
Events      
T = Trace of Precipitation, MM = Missing Value Source: NWS Daily Summary

Daily Weather History Graph

Daily Weather History Graph

Search for Another Location

Airport or City:

Trip Planner

Search our weather history database for the weather conditions in past years. The results will help you decide how hot, cold, wet, or windy it might be!

Date:

Astronomy

Feb. 15, 2012 Rise Set
Actual Time 7:09 AM EST 5:59 PM EST
Civil Twilight 6:42 AM EST 6:25 PM EST
Nautical Twilight 6:12 AM EST 6:56 PM EST
Astronomical Twilight 5:42 AM EST 7:26 PM EST
Moon 1:57 AM EST (2/15) 11:57 AM EST (2/15)
Length of Visible Light 11h 42m
Length of Day
10h 49m
Last Quarter, 39% of the Moon is Illuminated
Feb 15
Last Quarter
Feb 21
New
Feb 29
First Quarter
Mar 8
Full
Mar 14
Last Quarter

Hourly Weather History & Observations

Time (EST) Temp. Windchill Dew Point Humidity Pressure Visibility Wind Dir Wind Speed Gust Speed Precip Events Conditions
12:54 AM 45.0 °F 41.2 °F 35.1 °F 68% 30.08 in 10.0 mi West 6.9 mph - N/A   Scattered Clouds
1:54 AM 44.1 °F 40.8 °F 34.0 °F 68% 30.09 in 10.0 mi West 5.8 mph - N/A   Mostly Cloudy
2:54 AM 46.0 °F 39.3 °F 30.9 °F 56% 30.10 in 10.0 mi NW 16.1 mph 20.7 mph N/A   Mostly Cloudy
3:54 AM 45.0 °F 36.9 °F 30.9 °F 58% 30.12 in 10.0 mi NW 20.7 mph 29.9 mph N/A   Scattered Clouds
4:54 AM 42.1 °F 37.1 °F 30.0 °F 62% 30.15 in 10.0 mi NW 8.1 mph - N/A   Scattered Clouds
5:54 AM 41.0 °F 36.4 °F 28.0 °F 60% 30.17 in 10.0 mi WNW 6.9 mph - N/A   Clear
6:54 AM 39.9 °F 37.8 °F 28.0 °F 63% 30.20 in 10.0 mi NNW 3.5 mph - N/A   Partly Cloudy
7:54 AM 41.0 °F 38.0 °F 28.0 °F 60% 30.23 in 10.0 mi WNW 4.6 mph - N/A   Partly Cloudy
8:54 AM 44.1 °F 42.5 °F 28.9 °F 55% 30.26 in 10.0 mi Variable 3.5 mph - N/A   Partly Cloudy
9:54 AM 46.0 °F 44.8 °F 28.9 °F 51% 30.27 in 10.0 mi West 3.5 mph - N/A   Clear
10:54 AM 48.0 °F - 30.0 °F 50% 30.29 in 10.0 mi South 4.6 mph - N/A   Clear
11:54 AM 51.1 °F - 28.9 °F 43% 30.28 in 10.0 mi Calm Calm - N/A   Clear
12:54 PM 55.4 °F - 30.2 °F 38% 30.25 in 10.0 mi Calm Calm - N/A   Clear
1:54 PM 55.9 °F - 28.0 °F 34% 30.25 in 10.0 mi SE 4.6 mph - N/A   Clear
2:54 PM 59.0 °F - 28.0 °F 31% 30.23 in 10.0 mi East 5.8 mph - N/A   Clear
3:54 PM 59.0 °F - 27.0 °F 29% 30.22 in 10.0 mi SSE 8.1 mph - N/A   Clear
4:54 PM 57.9 °F - 27.0 °F 31% 30.22 in 10.0 mi SE 6.9 mph - N/A   Clear
5:54 PM 53.1 °F - 27.0 °F 37% 30.23 in 10.0 mi SE 10.4 mph - N/A   Clear
6:54 PM 52.0 °F - 27.0 °F 38% 30.26 in 10.0 mi ESE 4.6 mph - N/A   Clear
7:54 PM 51.1 °F - 28.0 °F 41% 30.28 in 10.0 mi Calm Calm - N/A   Scattered Clouds
8:54 PM 52.0 °F - 28.0 °F 40% 30.28 in 10.0 mi Calm Calm - N/A   Overcast
9:54 PM 52.0 °F - 27.0 °F 38% 30.29 in 10.0 mi SE 5.8 mph - N/A   Overcast
10:54 PM 52.0 °F - 28.0 °F 40% 30.28 in 10.0 mi East 3.5 mph - N/A   Overcast
11:54 PM 50.0 °F - 28.0 °F 43% 30.26 in 10.0 mi ESE 5.8 mph - N/A   Mostly Cloudy